sat.trackr.live / text

‹ back to catalog

TIANLIAN 2-02

NORAD 50005 · 2021-124A

PAYLOAD ACTIVE UNKNOWN

§ Identity

Operator
Country
PRC
Launch date
2021-12-13
Launch site
XICLF
Launch vehicle
Mass (kg)
RCS (m²)

Purposes: comms

External: N2YO · Heavens-Above · Gunter

§ Orbital elements

Epoch: 2026-09-19T21:12:19.456992Z

Period
1,436.07 min
Inclination
1.0390°
Eccentricity
0.0003563
Mean motion
1.00273329 rev/d
Perigee alt
35,771.1 km
Apogee alt
35,801.2 km
Semi-major
42,164.3 km
B*
0.0000e+0
RAAN
84.4840°
Arg perigee
152.0199°
Mean anomaly
251.3425°
Rev number
1,757

§ Raw data

TIANLIAN 2-021 50005U 21124A   26262.88355853 -.00000018  00000+0  00000+0 0  99912 50005   1.0390  84.4840 0003563 152.0199 251.3425  1.00273329 17576

JSON: /api/v1/satellites/50005 · /tle

For live sub-satellite position, see the globe view (requires WebGL).

§ Visibility from observer

Set your observer location to see the next 7 days of passes ≥ 10°. The values pass through the URL so the page stays shareable.

No JS? Fill the form by hand. The geolocation button needs JavaScript.